Regional Weather Roundup
Issued by NWS Jackson, KY

Home | Current Version | Previous Version | Text Only | Print | Product List | Glossary Off
Versions: 1 2 3 4 5 6 7 8 9 10 11 12 13 14 15 16 17 18 19 20 21 22 23 24 25 26 27 28

000
ASUS43 KJKL 241010
RWRJKL

EAST KENTUCKY HOURLY WEATHER ROUNDUP
NATIONAL WEATHER SERVICE JACKSON KY
600 AM EDT WED AUG 24 2016

NOTE: "FAIR" INDICATES FEW OR NO CLOUDS BELOW 12,000 FEET WITH
NO SIGNIFICANT WEATHER AND/OR OBSTRUCTIONS TO VISIBILITY.

* THESE REPORTS ARE NOT UNDER NWS QUALITY CONTROL AND MAY NOT
  REPORT WEATHER SUCH AS PRECIPITATION AND FOG.

KYZ079-080-083-085-087-088-110-112-115-119-120-241100
...EASTERN KENTUCKY...

CITY           SKY/WX    TMP DP  RH WIND       PRES   REMARKS
JACKSON        CLEAR     64  62  93 CALM      30.24S
LONDON         PTCLDY    66  62  87 CALM      30.24R
SOMERSET*      CLOUDY    63  63 100 CALM      30.24R
MONTICELLO*    CLEAR    N/A N/A N/A W8        30.24R
WILLIAMSBURG*  MOSUNNY   64  64 100 CALM      30.24S
MIDDLESBORO*   CLEAR     62  62 100 CALM      30.26S
HARLAN APT*    CLOUDY   N/A N/A N/A CALM      30.27R
PIKE CO APT*     N/A     66  65  97 SE6       30.25R
BIG SANDY APT* CLOUDY    67  65  95 CALM      30.24R
MOREHEAD APT*  CLOUDY    63  61  94 S5        30.23S
ASHLAND*       CLOUDY    63  61  94 SE3       30.19F
$$

KYZ035-036-041-042-044-050-067-078-099-241100
...CENTRAL KENTUCKY...

CITY           SKY/WX    TMP DP  RH WIND       PRES   REMARKS
MT STERLING*   PTCLDY    63  63 100 CALM      30.23S
FLEMING/MASON* MOCLDY    64  61  91 CALM      30.23R
DANVILLE*      CLEAR     64  63  94 CALM      30.23R
LEXINGTON      CLOUDY    66  62  87 SE6       30.21S
FRANKFORT      PTCLDY    66  62  87 SE3       30.19S
LOUISVILLE     CLOUDY    71  66  84 SE6       30.16F
LEBANON*         N/A     68  64  88 S3        30.20S
GLASGOW*       CLOUDY    66  66 100 CALM      30.20R
BOWLING GREEN  CLOUDY    69  67  93 CALM      30.19R
$$

KYZ091>093-OHZ055-061-077-WVZ005-015-034-035-042-241100
...SOUTHERN OHIO/WEST VIRGINIA...

CITY           SKY/WX    TMP DP  RH WIND       PRES   REMARKS
COVINGTON      CLOUDY    67  63  87 S5        30.18F
COLUMBUS       CLOUDY    65  59  81 SE3       30.20S
DAYTON         CLOUDY    66  59  78 S6        30.20S
WILMINGTON     CLOUDY    63  60  90 SE3       30.20S
HUNTINGTON     CLEAR     61  60  97 SE6       30.21S FOG
CHARLESTON     MOCLDY    62  61  96 SE3       30.24R FOG
PINEVILLE*     CLEAR     60  57  91 MISG      30.34S
BECKLEY        CLEAR     64  58  80 SE8       30.32S
BLUEFIELD      CLEAR     65  57  75 VRB6      30.35R
LOGAN CO APT*    N/A     66  63  88 CALM      30.26R
$$

VAZ002-007-008-TNZ017-027-036-066-071-241100
...SOUTHWEST VIRGINIA/EAST TENNESSEE...

CITY           SKY/WX    TMP DP  RH WIND       PRES   REMARKS
WISE*          PTCLDY    64  54  68 S5        30.34R
JONESVILLE*      N/A     64  64 100 CALM      30.29R
ABINGDON*      PTCLDY    66  62  87 CALM      30.31S
BRISTOL        PTCLDY    62  61  96 CALM      30.28R FOG
MORRISTOWN*    CLOUDY    70  66  88 CALM      30.25R
SEVIERVILLE*   MOSUNNY   66  64  94 CALM      30.24R
KNOXVILLE      CLOUDY    71  67  87 CALM      30.23R
OAK RIDGE      CLOUDY    69  65  86 CALM      30.25R
CROSSVILLE     PTCLDY    65  64  97 CALM      30.27S
NASHVILLE      PTCLDY    72  68  87 CALM      30.19R
$$

...KEY TO REMARKS...
VSB - VISIBILITY IN MILES
WCI - WIND CHILL INDEX
HX  - HEAT INDEX

$$




USA.gov is the U.S. government's official web portal to all federal, state and local government web resources and services.